• In Moldova, Republic
  • List of Countries
  • For 7 days
  • Water Temperature
  • Satellite Maps
  • Weather Map
  • Weather Widgets
  • user-avatar
    Login

    Hourly Weather Solden

    Today, 21 August, Monday

    Time Temperature Precipitation Wind Pressure Humidity
    00:00 +3°C° 0 mm 1 mps 586 mmHg 81%
    01:00 +2°C° 0 mm 1 mps 585 mmHg 81%
    02:00 +2°C° 0 mm 1 mps 585 mmHg 80%
    03:00 +2°C° 0 mm 1 mps 585 mmHg 79%
    04:00 +1°C° 0 mm 1 mps 585 mmHg 78%
    05:00 +3°C° 0 mm 1 mps 586 mmHg 73%
    06:00 +4°C° 0 mm 1 mps 586 mmHg 68%
    07:00 +5°C° 0 mm 1 mps 587 mmHg 62%
    08:00 +7°C° 0 mm 1 mps 588 mmHg 54%
    09:00 +10°C° 0 mm 1 mps 589 mmHg 45%
    10:00 +12°C° 0 mm 1 mps 590 mmHg 37%
    11:00 +13°C° 0 mm 2 mps 590 mmHg 36%
    12:00 +13°C° 0 mm 2 mps 590 mmHg 36%
    13:00 +14°C° 0 mm 2 mps 590 mmHg 36%
    14:00 +14°C° 0 mm 2 mps 590 mmHg 38%
    15:00 +13°C° 0 mm 2 mps 589 mmHg 41%
    16:00 +13°C° 0 mm 2 mps 589 mmHg 43%
    17:00 +10°C° 0 mm 2 mps 588 mmHg 52%
    18:00 +9°C° 0 mm 1 mps 588 mmHg 61%
    19:00 +8°C° 0 mm 1 mps 587 mmHg 70%
    20:00 +6°C° 0 mm 1 mps 587 mmHg 74%
    21:00 +5°C° 0 mm 1 mps 586 mmHg 79%
    22:00 +4°C° 0 mm 1 mps 586 mmHg 83%
    23:00 +4°C° 0 mm 1 mps 586 mmHg 83%

    Tomorrow, 22 August, Tuesday

    Time Temperature Precipitation Wind Pressure Humidity
    00:00 +3°C° 0 mm 1 mps 586 mmHg 83%
    01:00 +3°C° 0 mm 1 mps 586 mmHg 84%
    02:00 +3°C° 0 mm 1 mps 585 mmHg 84%
    03:00 +3°C° 0 mm 1 mps 585 mmHg 84%
    04:00 +3°C° 0 mm 1 mps 585 mmHg 84%
    05:00 +4°C° 0 mm 1 mps 586 mmHg 79%
    06:00 +5°C° 0 mm 1 mps 587 mmHg 75%
    07:00 +7°C° 0 mm 1 mps 587 mmHg 71%
    08:00 +9°C° 0 mm 1 mps 588 mmHg 64%
    09:00 +11°C° 0 mm 1 mps 589 mmHg 56%
    10:00 +14°C° 0 mm 1 mps 590 mmHg 49%
    11:00 +15°C° 0 mm 1 mps 590 mmHg 46%
    12:00 +16°C° 0 mm 1 mps 590 mmHg 44%
    13:00 +17°C° 0 mm 2 mps 590 mmHg 41%
    14:00 +16°C° 0 mm 2 mps 590 mmHg 43%
    15:00 +16°C° 0 mm 2 mps 590 mmHg 44%
    16:00 +16°C° 0 mm 2 mps 589 mmHg 46%
    17:00 +14°C° 0 mm 2 mps 588 mmHg 57%
    18:00 +12°C° 0 mm 2 mps 587 mmHg 69%
    19:00 +10°C° 0 mm 1 mps 586 mmHg 80%
    20:00 +8°C° 0 mm 1 mps 586 mmHg 84%
    21:00 +7°C° 0 mm 1 mps 586 mmHg 88%
    22:00 +6°C° 0 mm 1 mps 585 mmHg 92%
    23:00 +6°C° 0 mm 1 mps 585 mmHg 92%

    Day after tomorrow, 23 August, Wednesday

    Time Temperature Precipitation Wind Pressure Humidity
    00:00 +5°C° 0 mm 1 mps 585 mmHg 92%
    01:00 +5°C° 0 mm 1 mps 585 mmHg 92%
    02:00 +5°C° 0 mm 1 mps 584 mmHg 90%
    03:00 +5°C° 0 mm 1 mps 584 mmHg 89%
    04:00 +5°C° 0 mm 1 mps 584 mmHg 87%
    05:00 +6°C° 0 mm 1 mps 585 mmHg 82%
    06:00 +8°C° 0 mm 1 mps 586 mmHg 76%
    07:00 +9°C° 0 mm 1 mps 586 mmHg 71%
    08:00 +11°C° 0 mm 1 mps 588 mmHg 61%
    09:00 +14°C° 0 mm 1 mps 589 mmHg 51%
    10:00 +16°C° 0 mm 1 mps 590 mmHg 42%
    11:00 +18°C° 0 mm 1 mps 590 mmHg 40%
    12:00 +19°C° 0 mm 1 mps 590 mmHg 38%
    13:00 +19°C° 0 mm 2 mps 591 mmHg 36%
    14:00 +18°C° 0.2 mm 2 mps 590 mmHg 39%
    15:00 +18°C° 0.2 mm 2 mps 590 mmHg 41%
    16:00 +18°C° 0.2 mm 2 mps 590 mmHg 44%
    17:00 +15°C° 0.3 mm 2 mps 589 mmHg 54%
    18:00 +13°C° 0.3 mm 2 mps 588 mmHg 65%
    19:00 +11°C° 0.3 mm 1 mps 587 mmHg 75%
    20:00 +9°C° 0.1 mm 1 mps 587 mmHg 78%
    21:00 +8°C° 0.1 mm 1 mps 586 mmHg 81%
    22:00 +7°C° 0.1 mm 1 mps 586 mmHg 84%
    23:00 +7°C° 0 mm 1 mps 586 mmHg 83%

    24 August, Thursday

    Time Temperature Precipitation Wind Pressure Humidity
    00:00 +7°C° 0 mm 1 mps 586 mmHg 83%
    01:00 +7°C° 0 mm 1 mps 586 mmHg 82%
    02:00 +6°C° 0 mm 1 mps 585 mmHg 80%
    03:00 +6°C° 0 mm 1 mps 585 mmHg 78%
    04:00 +6°C° 0 mm 1 mps 585 mmHg 76%
    05:00 +7°C° 0 mm 1 mps 586 mmHg 72%
    06:00 +9°C° 0 mm 1 mps 587 mmHg 68%
    07:00 +11°C° 0 mm 1 mps 587 mmHg 64%
    08:00 +13°C° 0 mm 1 mps 589 mmHg 56%
    09:00 +15°C° 0 mm 1 mps 590 mmHg 48%
    10:00 +18°C° 0 mm 1 mps 591 mmHg 40%
    11:00 +19°C° 0 mm 1 mps 591 mmHg 39%
    12:00 +19°C° 0 mm 1 mps 591 mmHg 38%
    13:00 +20°C° 0 mm 1 mps 591 mmHg 38%
    14:00 +19°C° 0.2 mm 1 mps 591 mmHg 42%
    15:00 +19°C° 0.2 mm 1 mps 590 mmHg 46%
    16:00 +18°C° 0.2 mm 1 mps 590 mmHg 49%
    17:00 +15°C° 0.4 mm 1 mps 589 mmHg 59%
    18:00 +13°C° 0.4 mm 1 mps 588 mmHg 69%
    19:00 +11°C° 0.4 mm 1 mps 587 mmHg 79%
    20:00 +10°C° 0.2 mm 1 mps 587 mmHg 81%
    21:00 +10°C° 0.2 mm 1 mps 587 mmHg 83%
    22:00 +9°C° 0.2 mm 1 mps 587 mmHg 85%
    23:00 +8°C° 0 mm 1 mps 587 mmHg 86%

    25 August, Friday

    Time Temperature Precipitation Wind Pressure Humidity
    00:00 +8°C° 0 mm 1 mps 587 mmHg 86%
    01:00 +8°C° 0 mm 1 mps 586 mmHg 87%
    02:00 +7°C° 0 mm 1 mps 586 mmHg 87%
    03:00 +7°C° 0 mm 1 mps 586 mmHg 86%
    04:00 +7°C° 0 mm 1 mps 586 mmHg 86%
    05:00 +8°C° 0 mm 1 mps 586 mmHg 83%
    06:00 +9°C° 0 mm 1 mps 587 mmHg 80%
    07:00 +10°C° 0 mm 1 mps 588 mmHg 77%
    08:00 +12°C° 0 mm 1 mps 589 mmHg 68%
    09:00 +15°C° 0 mm 1 mps 589 mmHg 59%
    10:00 +17°C° 0 mm 2 mps 590 mmHg 50%
    11:00 +18°C° 0 mm 2 mps 591 mmHg 49%
    12:00 +18°C° 0 mm 2 mps 591 mmHg 47%
    13:00 +19°C° 0 mm 2 mps 591 mmHg 46%
    14:00 +18°C° 0.3 mm 2 mps 591 mmHg 48%
    15:00 +18°C° 0.3 mm 2 mps 590 mmHg 51%
    16:00 +18°C° 0.3 mm 2 mps 590 mmHg 53%
    17:00 +16°C° 0.5 mm 2 mps 589 mmHg 63%
    18:00 +14°C° 0.5 mm 2 mps 588 mmHg 73%
    19:00 +12°C° 0.5 mm 1 mps 588 mmHg 83%
    20:00 +11°C° 0.3 mm 1 mps 587 mmHg 85%
    21:00 +9°C° 0.3 mm 2 mps 587 mmHg 88%
    22:00 +9°C° 0.3 mm 2 mps 587 mmHg 91%
    23:00 +8°C° 0.1 mm 2 mps 587 mmHg 91%

    26 August, Saturday

    Time Temperature Precipitation Wind Pressure Humidity
    00:00 +8°C° 0.1 mm 2 mps 587 mmHg 91%
    01:00 +8°C° 0.1 mm 2 mps 587 mmHg 90%
    02:00 +8°C° 0 mm 2 mps 587 mmHg 90%
    03:00 +7°C° 0 mm 2 mps 586 mmHg 89%
    04:00 +7°C° 0 mm 2 mps 586 mmHg 88%
    05:00 +8°C° 0 mm 2 mps 587 mmHg 86%
    06:00 +9°C° 0 mm 2 mps 587 mmHg 83%
    07:00 +9°C° 0 mm 2 mps 588 mmHg 80%
    08:00 +13°C° 0 mm 2 mps 589 mmHg 70%
    09:00 +15°C° 0 mm 2 mps 590 mmHg 60%
    10:00 +18°C° 0 mm 2 mps 591 mmHg 50%
    11:00 +19°C° 0.1 mm 2 mps 591 mmHg 47%
    12:00 +19°C° 0.1 mm 2 mps 591 mmHg 45%
    13:00 +20°C° 0.1 mm 2 mps 591 mmHg 43%
    14:00 +20°C° 0.3 mm 2 mps 591 mmHg 44%
    15:00 +19°C° 0.3 mm 2 mps 591 mmHg 46%
    16:00 +19°C° 0.3 mm 2 mps 590 mmHg 47%
    17:00 +17°C° 0.5 mm 2 mps 589 mmHg 58%
    18:00 +14°C° 0.5 mm 1 mps 588 mmHg 69%
    19:00 +12°C° 0.5 mm 1 mps 587 mmHg 80%
    20:00 +11°C° 0.1 mm 1 mps 587 mmHg 81%
    21:00 +11°C° 0.1 mm 1 mps 587 mmHg 83%
    22:00 +9°C° 0.1 mm 2 mps 587 mmHg 85%
    23:00 +9°C° 0 mm 2 mps 587 mmHg 84%
    Show more